CW1663 Weather Reports


Display with metric or nautical units.
time (UTC)temp
F
wind
direction
speed
MPH
gust
MPH
rain 1hr
in
rain 24hr
in
rain mn
in
humidity
%
barometer
mb
20260504211304 53 54 2.0 5.0 0.00 0.00 0.00 92 1013.8
20260504210803 53 67 1.0 3.0 0.00 0.00 0.00 92 1013.8
20260504205804 53 50 1.0 3.0 0.00 0.00 0.00 92 1013.8
20260504205304 53 57 3.0 6.0 0.00 0.00 0.00 92 1013.8
20260504204304 53 32 2.0 5.0 0.00 0.00 0.00 92 1013.8
20260504203804 53 55 2.0 5.0 0.00 0.00 0.00 92 1013.8
20260504202305 53 50 2.0 9.0 0.00 0.00 0.00 91 1013.7
20260504201304 53 50 2.0 5.0 0.00 0.00 0.00 91 1013.6
20260504200804 53 53 2.0 5.0 0.00 0.00 0.00 91 1013.6
20260504200304 54 55 2.0 5.0 0.00 0.00 0.00 90 1013.5
20260504195803 54 38 2.0 5.0 0.00 0.00 0.00 90 1013.5
20260504195304 54 16 1.0 3.0 0.00 0.00 0.00 90 1013.5
20260504194804 54 59 2.0 7.0 0.00 0.00 0.00 90 1013.5
20260504194303 54 41 3.0 8.0 0.00 0.00 0.00 89 1013.3
20260504192304 55 53 1.0 3.0 0.00 0.00 0.00 88 1012.9
20260504191803 55 75 2.0 3.0 0.00 0.00 0.00 88 1012.9
20260504191304 55 51 1.0 3.0 0.00 0.00 0.00 88 1012.9
20260504185804 56 53 0.0 2.0 0.00 0.00 0.00 87 1012.9
20260504184804 56 52 1.0 3.0 0.00 0.00 0.00 86 1012.9
20260504183804 57 77 2.0 7.0 0.00 0.00 0.00 86 1012.9
20260504182804 57 46 2.0 6.0 0.00 0.00 0.00 86 1012.9
20260504182304 57 73 3.0 6.0 0.00 0.00 0.00 86 1012.9
20260504181304 58 51 2.0 5.0 0.00 0.00 0.00 86 1012.9
20260504180803 58 39 1.0 5.0 0.00 0.00 0.00 86 1012.9
20260504180304 57 33 2.0 8.0 0.00 0.00 0.00 86 1013.0
20260504175804 57 83 3.0 8.0 0.00 0.00 0.00 86 1013.0
20260504175304 57 84 3.0 7.0 0.00 0.00 0.00 86 1013.0
20260504174811 57 62 3.0 6.0 0.00 0.00 0.00 86 1013.0
20260504172812 57 7 4.0 8.0 0.00 0.00 0.00 86 1013.1
20260504170804 57 22 3.0 8.0 0.00 0.00 0.00 86 1013.0
20260504150303 59 38 4.0 7.0 0.00 0.00 0.00 85 1013.1
20260504141304 57 347 2.0 5.0 0.00 0.00 0.00 90 1013.3
20260504140803 57 48 2.0 6.0 0.00 0.01 0.00 90 1013.3
20260504130804 56 65 2.0 6.0 0.00 0.01 0.00 93 1013.6
20260504130304 56 78 0.0 3.0 0.00 0.01 0.00 93 1013.6
20260504110304 55 33 2.0 5.0 0.00 0.01 0.00 96 1013.5
20260504100304 54 38 2.0 5.0 0.00 0.01 0.00 97 1013.5
20260504081804 52 51 0.0 2.0 0.00 0.02 0.00 97 1013.0
20260504080804 52 55 1.0 2.0 0.00 0.02 0.00 97 1013.0
20260504050304 50 286 1.0 3.0 0.00 0.02 0.00 97 1011.2
20260504045804 50 281 1.0 3.0 0.00 0.02 0.00 97 1011.2
20260504043803 50 280 0.0 1.0 0.00 0.02 0.00 97 1011.4
20260504043303 50 250 1.0 3.0 0.00 0.02 0.00 97 1011.3
20260504042804 50 322 1.0 3.0 0.00 0.02 0.00 97 1011.3
20260504042304 50 323 1.0 2.0 0.00 0.02 0.00 97 1011.2
20260504041804 51 339 2.0 3.0 0.00 0.02 0.00 97 1011.2
20260504034804 51 277 1.0 3.0 0.00 0.02 0.00 97 1011.1
20260504032304 51 265 1.0 3.0 0.00 0.02 0.00 97 1011.2
20260504031304 51 275 2.0 5.0 0.00 0.02 0.00 97 1011.5
20260504030804 51 257 2.0 3.0 0.00 0.02 0.00 97 1011.5
20260504023304 51 227 2.0 7.0 0.00 0.02 0.00 97 1011.3
20260504022305 51 253 2.0 7.0 0.00 0.02 0.00 97 1011.1
20260504015804 51 218 3.0 6.0 0.00 0.02 0.00 96 1011.1
20260504015304 51 200 2.0 6.0 0.00 0.02 0.00 96 1011.1
20260504014804 51 235 1.0 3.0 0.00 0.02 0.00 96 1011.1
20260504014304 51 235 3.0 5.0 0.00 0.02 0.00 96 1011.1
20260504013804 51 202 1.0 3.0 0.00 0.02 0.00 96 1011.1
20260504012304 52 209 2.0 8.0 0.00 0.02 0.00 96 1011.0
20260504005804 52 249 3.0 7.0 0.00 0.02 0.00 96 1011.2
20260504005305 52 232 4.0 7.0 0.00 0.02 0.00 96 1011.1
20260504003803 52 240 4.0 10.0 0.00 0.03 0.00 96 1011.1
20260504002803 52 216 5.0 8.0 0.00 0.03 0.00 95 1011.2
20260504002304 52 253 3.0 8.0 0.00 0.03 0.00 95 1011.1
20260504001304 52 220 3.0 8.0 0.00 0.03 0.00 95 1011.1
20260504000304 52 238 5.0 9.0 0.00 0.03 0.00 95 1011.0
20260503235805 52 245 3.0 6.0 0.00 0.03 0.00 95 1011.0
20260503234303 52 248 5.0 8.0 0.00 0.03 0.00 95 1011.2
20260503233804 52 243 5.0 8.0 0.00 0.03 0.00 95 1011.2
20260503232804 52 242 5.0 9.0 0.00 0.03 0.00 94 1011.1
20260503231804 52 230 5.0 7.0 0.00 0.03 0.00 94 1011.0
20260503231304 52 232 3.0 8.0 0.00 0.03 0.00 94 1011.0
20260503225304 52 238 4.0 8.0 0.00 0.03 0.03 93 1010.9
20260503223303 52 227 4.0 7.0 0.00 0.03 0.03 93 1010.9
20260503221804 52 224 5.0 7.0 0.00 0.03 0.03 92 1010.8
20260503221304 52 247 3.0 8.0 0.00 0.03 0.03 92 1010.7
20260503215804 53 240 3.0 7.0 0.00 0.03 0.03 92 1010.7
20260503214804 52 246 3.0 5.0 0.00 0.03 0.03 92 1010.6
20260503214303 52 242 3.0 7.0 0.00 0.03 0.03 91 1010.6
20260503213804 53 226 3.0 6.0 0.00 0.03 0.03 91 1010.6
20260503212803 53 208 2.0 3.0 0.00 0.04 0.03 91 1010.6
20260503212305 53 242 2.0 5.0 0.00 0.04 0.03 91 1010.7
20260503211804 53 239 3.0 5.0 0.00 0.04 0.03 91 1010.7